Content
SEND FEEDBACK

Daily
Averages
Monthly
Summary
United States of America

POTTS JUNCTION, GUAM


Home > North America > United States > Guam
Elevation: 360 feet     Latitude: 13 33N     Longitude: 144 50E

WEATHER
 
SELECT A DAY
Number of Records: 209,106;   Date Range: 1/1/95 - 8/12/14
 
SHARE

PRINT THIS DATA

[ ← Previous Day ]
WEATHER ALMANAC - APRIL 17, 2013
[ Next Day → ]
[ °C ]   °F
Weather ElementAverageHighLow
Temperature84.6 °F89.1 °F (12:54 pm)78.1 °F (4:54 am)
Dewpoint71.4 °F73.9 °F (8:54 pm)70 °F (5:54 am)
Humidity64.9 %79 % (4:54 am)53 % (12:54 pm)
Barometer29.86 in29.90 in (10:02 am)29.78 in (3:54 pm)
Wind Speed8.9 mph13.8 mph (9:54 am)
Wind Gust20.7 mph (12:54 pm)
Weather ElementAverage
Visibility10 mi
Wind DirectionENE (73.6 °)

Weather ElementTotal
Precipitation---
Cooling Degree Days18.6 (Base 65)
Growing Degree Days33.6 (Base 50)
Averaged from 28 records on April 17, 2013
WEATHER CONDITIONS BREAKOUT
WIND DIRECTION BREAKOUT
WEATHER BY HOUR - APRIL 17, 2013
[ °C ]   °F
Local TimeTemperatureDewpointHumidityBarometerVisibilityWind DirectionWind SpeedGust SpeedPrecipitationEventsConditions
1:54 AM80.1 °F72.0 °F76 %29.86 in10.0 miENE (70°)3.5 mphClear
2:54 AM80.1 °F72.0 °F76 %29.85 in10.0 miENE (70°)5.8 mphPartly Cloudy
3:54 AM80.1 °F71.1 °F74 %29.84 in10.0 miENE (60°)5.8 mphClear
4:54 AM78.1 °F71.1 °F79 %29.85 in10.0 miNE (50°)5.8 mphClear
5:54 AM80.1 °F70.0 °F71 %29.84 in10.0 miENE (70°)4.6 mphPartly Cloudy
6:54 AM80.1 °F71.1 °F74 %29.87 in10.0 miNE (40°)5.8 mphPartly Cloudy
7:54 AM82.9 °F71.1 °F67 %29.88 in10.0 miEast (80°)8.1 mphPartly Cloudy
8:54 AM86.0 °F70.0 °F59 %29.89 in10.0 miENE (70°)11.5 mphPartly Cloudy
9:54 AM88.0 °F71.1 °F57 %29.89 in10.0 miENE (60°)13.8 mphScattered Clouds
10:02 AM87.8 °F71.6 °F58 %29.90 in10.0 miENE (60°)12.7 mphMostly Cloudy
10:12 AM87.8 °F71.6 °F58 %29.90 in10.0 miENE (70°)10.4 mphMostly Cloudy
10:28 AM87.8 °F71.6 °F58 %29.89 in10.0 miEast (80°)13.8 mph19.6 mphMostly Cloudy
10:39 AM87.8 °F71.6 °F58 %29.89 in10.0 miEast (100°)11.5 mphScattered Clouds
10:54 AM88.0 °F71.1 °F57 %29.86 in10.0 miEast (80°)12.7 mphScattered Clouds
11:40 AM87.8 °F71.6 °F58 %29.87 in10.0 miEast (90°)12.7 mphMostly Cloudy
11:54 AM88.0 °F70.0 °F55 %29.84 in10.0 miEast (80°)12.7 mph19.6 mphMostly Cloudy
12:54 PM89.1 °F70.0 °F53 %29.83 in10.0 miEast (80°)13.8 mph20.7 mphPartly Cloudy
1:54 PM89.1 °F71.1 °F55 %29.80 in10.0 miEast (100°)11.5 mphPartly Cloudy
2:54 PM88.0 °F70.0 °F55 %29.80 in10.0 miEast (100°)12.7 mphPartly Cloudy
3:54 PM87.1 °F71.1 °F59 %29.78 in10.0 miEast (80°)10.4 mph18.4 mphScattered Clouds
4:54 PM87.1 °F71.1 °F59 %29.80 in10.0 miEast (100°)11.5 mphPartly Cloudy
5:54 PM84.9 °F70.0 °F61 %29.82 in10.0 miEast (90°)10.4 mphClear
6:54 PM82.9 °F71.1 °F67 %29.84 in10.0 miEast (80°)6.9 mphClear
7:54 PM82.9 °F72.0 °F69 %29.86 in10.0 miENE (70°)4.6 mphPartly Cloudy
8:54 PM82.0 °F73.9 °F76 %29.87 in10.0 miCalm0.00 inRainLight Rain
9:54 PM82.0 °F73.0 °F74 %29.88 in10.0 miENE (70°)4.6 mph0.00 inMostly Cloudy
10:54 PM82.0 °F73.0 °F74 %29.89 in10.0 miEast (80°)5.8 mphPartly Cloudy
11:54 PM81.0 °F73.9 °F79 %29.88 in10.0 miEast (80°)4.6 mphPartly Cloudy
Hourly data recorded from PGUM, located miles away from Potts Junction, Guam







STORIES FROM OUR PARTNERS